sat.trackr.live / text

‹ back to catalog

STARLINK-1527

NORAD 46048 · 2020-055X

PAYLOAD ACTIVE UNKNOWN

§ Identity

Operator
Country
US
Launch date
2020-08-07
Launch site
AFETR
Launch vehicle
Mass (kg)
RCS (m²)

Purposes: comms

External: N2YO · Heavens-Above · Gunter

§ Orbital elements

Epoch: 2026-09-19T19:38:26.512224Z

Period
94.01 min
Inclination
53.1592°
Eccentricity
0.0001204
Mean motion
15.31704135 rev/d
Perigee alt
469.9 km
Apogee alt
471.6 km
Semi-major
6,848.9 km
B*
3.1794e-5
RAAN
290.5575°
Arg perigee
78.9516°
Mean anomaly
281.1621°
Rev number
33,878

§ Raw data

STARLINK-15271 46048U 20055X   26262.81836241  .00000622  00000+0  31794-4 0  99922 46048  53.1592 290.5575 0001204  78.9516 281.1621 15.31704135338785

JSON: /api/v1/satellites/46048 · /tle

For live sub-satellite position, see the globe view (requires WebGL).

§ Visibility from observer

Set your observer location to see the next 7 days of passes ≥ 10°. The values pass through the URL so the page stays shareable.

No JS? Fill the form by hand. The geolocation button needs JavaScript.